QPF
0.00 0.00 0.00 0.00 0.00 0.00 0.00 0.00 0.00 0.00 0.00 0.00 0.00 0.00 0.00 0.00 0.00 0.00 0.00 0.00 0.00 0.00 0.00 0.00 0.01 0.01 0.01 0.01 0.00 0.01 0.00 0.00 0.00 0.00 0.00 0.00 0.00 0.00 0.00 0.00 0.00 0.01 0.01 0.00 0.01 0.01 0.00 0.00 0.00
0.00 0.00 0.00 0.00 0.00 0.00 0.00 0.00 0.00 0.00 0.00 0.00 0.00 0.00 0.00 0.00 0.00 0.00 0.00 0.00 0.00 0.00 0.00 0.00 0.00 0.00 0.00 0.01 0.01 0.01 0.01 0.00 0.00 0.00 0.00 0.00 0.00 0.01 0.00 0.00 0.01 0.01 0.01 0.01 0.00 0.00 0.00 0.00 0.00
0.00 0.00 0.00 0.00 0.00 0.00 0.00 0.00 0.00 0.00 0.00 0.00 0.00 0.00 0.00 0.00 0.00 0.00 0.00 0.00 0.00 0.01 0.01 0.00 0.01 0.00 0.00 0.00 0.00 0.01 0.01 0.00 0.00 0.00 0.00 0.00 0.00 0.00 0.00 0.00 0.01 0.01 0.01 0.00 0.00 0.00 0.00 0.00 0.00
0.00 0.00 0.00 0.00 0.00 0.00 0.00 0.00 0.00 0.00 0.00 0.00 0.00 0.00 0.00 0.00 0.00 0.00 0.00 0.01 0.01 0.01 0.01 0.01 0.02 0.03 0.01 0.00 0.00 0.00 0.00 0.00 0.00 0.00 0.00 0.00 0.00 0.00 0.00 0.01 0.00 0.00 0.00 0.00 0.00 0.00 0.00 0.00 0.00
0.00 0.00 0.00 0.00 0.00 0.00 0.00 0.00 0.00 0.00 0.00 0.00 0.00 0.00 0.00 0.00 0.00 0.00 0.00 0.02 0.02 0.03 0.01 0.02 0.08 0.10 0.07 0.04 0.00 0.00 0.00 0.00 0.01 0.02 0.02 0.00 0.00 0.00 0.00 0.00 0.00 0.00 0.00 0.00 0.00 0.00 0.00 0.00 0.00
0.00 0.00 0.00 0.00 0.00 0.00 0.00 0.00 0.00 0.00 0.00 0.00 0.00 0.00 0.00 0.00 0.00 0.00 0.00 0.00 0.02 0.05 0.07 0.09 0.11 0.09 0.12 0.08 0.01 0.00 0.00 0.00 0.00 0.01 0.04 0.04 0.01 0.02 0.00 0.00 0.00 0.00 0.00 0.00 0.00 0.00 0.00 0.00 0.00
0.00 0.00 0.00 0.00 0.00 0.00 0.00 0.00 0.00 0.00 0.00 0.00 0.00 0.00 0.00 0.00 0.00 0.00 0.00 0.00 0.00 0.01 0.05 0.17 0.20 0.25 0.24 0.17 0.10 0.01 0.01 0.00 0.00 0.01 0.01 0.03 0.02 0.03 0.00 0.00 0.00 0.00 0.00 0.00 0.00 0.00 0.00 0.00 0.00
0.00 0.00 0.00 0.00 0.00 0.00 0.00 0.00 0.00 0.00 0.00 0.00 0.00 0.00 0.00 0.00 0.00 0.00 0.00 0.00 0.00 0.00 0.00 0.01 0.09 0.21 0.33 0.34 0.22 0.11 0.06 0.03 0.00 0.00 0.00 0.00 0.01 0.01 0.00 0.00 0.00 0.00 0.00 0.00 0.00 0.00 0.00 0.00 0.00
0.00 0.00 0.00 0.00 0.00 0.00 0.00 0.00 0.00 0.00 0.00 0.00 0.00 0.00 0.00 0.00 0.00 0.00 0.00 0.00 0.00 0.00 0.00 0.00 0.00 0.03 0.16 0.28 0.31 0.33 0.24 0.19 0.06 0.02 0.00 0.01 0.01 0.00 0.00 0.00 0.00 0.00 0.00 0.00 0.00 0.00 0.00 0.00 0.00
0.00 0.00 0.00 0.00 0.00 0.00 0.00 0.00 0.00 0.00 0.00 0.00 0.00 0.00 0.00 0.00 0.00 0.00 0.00 0.00 0.00 0.00 0.00 0.00 0.00 0.00 0.02 0.13 0.23 0.23 0.29 0.30 0.14 0.01 0.00 0.01 0.00 0.00 0.00 0.00 0.00 0.00 0.00 0.00 0.00 0.00 0.00 0.00 0.00
0.00 0.00 0.00 0.00 0.00 0.00 0.00 0.00 0.00 0.00 0.00 0.00 0.00 0.00 0.00 0.00 0.00 0.00 0.00 0.00 0.00 0.00 0.00 0.00 0.00 0.00 0.00 0.01 0.09 0.16 0.18 0.21 0.22 0.11 0.00 0.00 0.00 0.00 0.00 0.00 0.00 0.00 0.00 0.00 0.00 0.00 0.00 0.00 0.00
0.00 0.00 0.00 0.00 0.00 0.00 0.00 0.00 0.00 0.00 0.00 0.00 0.00 0.00 0.00 0.00 0.00 0.00 0.00 0.00 0.00 0.00 0.00 0.00 0.00 0.00 0.00 0.00 0.01 0.07 0.10 0.11 0.10 0.16 0.08 0.00 0.00 0.00 0.00 0.00 0.00 0.00 0.00 0.00 0.00 0.00 0.00 0.00 0.00
0.00 0.00 0.00 0.00 0.00 0.00 0.00 0.00 0.00 0.00 0.00 0.00 0.00 0.00 0.00 0.00 0.00 0.00 0.00 0.00 0.00 0.00 0.00 0.00 0.00 0.00 0.00 0.00 0.00 0.02 0.05 0.08 0.05 0.06 0.07 0.01 0.00 0.00 0.00 0.00 0.00 0.00 0.00 0.00 0.00 0.00 0.00 0.00 0.00
0.00 0.00 0.00 0.00 0.00 0.00 0.00 0.00 0.00 0.00 0.00 0.00 0.00 0.00 0.00 0.00 0.00 0.00 0.00 0.00 0.00 0.00 0.00 0.00 0.00 0.00 0.00 0.00 0.00 0.00 0.02 0.09 0.08 0.00 0.03 0.06 0.03 0.00 0.00 0.00 0.00 0.00 0.00 0.00 0.00 0.00 0.00 0.00 0.00
0.00 0.00 0.00 0.00 0.00 0.00 0.00 0.00 0.00 0.00 0.00 0.00 0.00 0.00 0.00 0.00 0.00 0.00 0.00 0.00 0.00 0.00 0.00 0.00 0.00 0.00 0.00 0.00 0.00 0.00 0.00 0.09 0.06 0.01 0.01 0.04 0.03 0.00 0.00 0.00 0.00 0.00 0.00 0.00 0.00 0.00 0.00 0.00 0.00
0.00 0.00 0.00 0.00 0.00 0.00 0.00 0.00 0.00 0.00 0.00 0.00 0.00 0.00 0.00 0.00 0.00 0.00 0.00 0.00 0.00 0.00 0.00 0.00 0.00 0.00 0.00 0.00 0.00 0.00 0.00 0.05 0.07 0.03 0.00 0.01 0.01 0.00 0.00 0.00 0.00 0.00 0.00 0.00 0.00 0.00 0.00 0.00 0.00
0.00 0.00 0.00 0.00 0.00 0.00 0.00 0.00 0.00 0.00 0.00 0.00 0.00 0.00 0.00 0.00 0.00 0.00 0.00 0.00 0.00 0.00 0.00 0.00 0.00 0.00 0.00 0.00 0.00 0.00 0.00 0.01 0.05 0.08 0.06 0.03 0.02 0.01 0.00 0.00 0.00 0.00 0.00 0.00 0.00 0.00 0.00 0.00 0.00
0.00 0.00 0.00 0.00 0.00 0.00 0.00 0.00 0.00 0.00 0.00 0.00 0.00 0.00 0.00 0.00 0.00 0.00 0.00 0.00 0.00 0.00 0.00 0.00 0.00 0.00 0.00 0.00 0.00 0.00 0.00 0.00 0.02 0.06 0.03 0.04 0.02 0.01 0.00 0.00 0.00 0.00 0.00 0.00 0.00 0.00 0.00 0.00 0.00
0.00 0.00 0.00 0.00 0.00 0.00 0.00 0.00 0.00 0.00 0.00 0.00 0.00 0.00 0.00 0.00 0.00 0.00 0.00 0.00 0.00 0.00 0.00 0.00 0.00 0.00 0.00 0.00 0.00 0.00 0.00 0.00 0.00 0.01 0.01 0.01 0.00 0.01 0.01 0.02 0.03 0.01 0.00 0.00 0.00 0.00 0.00 0.00 0.00
0.00 0.00 0.00 0.00 0.00 0.00 0.00 0.00 0.00 0.00 0.00 0.00 0.00 0.00 0.00 0.00 0.00 0.00 0.00 0.00 0.00 0.00 0.00 0.00 0.00 0.00 0.00 0.00 0.00 0.00 0.00 0.00 0.00 0.00 0.01 0.06 0.08 0.02 0.02 0.02 0.04 0.02 0.01 0.00 0.00 0.00 0.00 0.00 0.00
0.00 0.00 0.00 0.00 0.00 0.00 0.00 0.00 0.00 0.00 0.00 0.00 0.00 0.00 0.00 0.00 0.00 0.00 0.00 0.00 0.00 0.00 0.00 0.00 0.00 0.00 0.00 0.00 0.00 0.00 0.00 0.00 0.00 0.01 0.02 0.02 0.09 0.09 0.05 0.02 0.02 0.03 0.03 0.01 0.00 0.00 0.00 0.00 0.00
0.00 0.00 0.00 0.00 0.00 0.00 0.00 0.00 0.00 0.00 0.00 0.00 0.00 0.00 0.00 0.00 0.00 0.00 0.00 0.00 0.00 0.00 0.00 0.00 0.00 0.00 0.00 0.00 0.00 0.00 0.00 0.00 0.00 0.00 0.00 0.00 0.00 0.01 0.03 0.05 0.03 0.01 0.03 0.03 0.01 0.00 0.00 0.00 0.00
0.00 0.00 0.00 0.00 0.02 0.01 0.00 0.00 0.00 0.00 0.00 0.00 0.00 0.00 0.00 0.00 0.00 0.00 0.00 0.00 0.00 0.00 0.00 0.00 0.00 0.00 0.00 0.00 0.00 0.00 0.00 0.00 0.00 0.00 0.00 0.00 0.00 0.01 0.00 0.00 0.02 0.02 0.02 0.04 0.03 0.01 0.00 0.00 0.00
0.00 0.00 0.00 0.00 0.01 0.00 0.00 0.00 0.00 0.00 0.00 0.00 0.00 0.00 0.00 0.00 0.00 0.00 0.00 0.00 0.00 0.00 0.00 0.00 0.00 0.00 0.00 0.00 0.00 0.00 0.00 0.00 0.00 0.00 0.00 0.00 0.00 0.00 0.01 0.00 0.00 0.01 0.02 0.04 0.06 0.05 0.01 0.00 0.00
0.00 0.00 0.00 0.00 0.00 0.00 0.00 0.00 0.00 0.00 0.00 0.00 0.00 0.00 0.00 0.00 0.00 0.00 0.00 0.00 0.00 0.00 0.00 0.00 0.00 0.00 0.00 0.00 0.00 0.00 0.00 0.00 0.00 0.00 0.00 0.00 0.00 0.01 0.02 0.01 0.00 0.00 0.00 0.03 0.09 0.07 0.03 0.01 0.00
0.01 0.00 0.00 0.00 0.00 0.00 0.00 0.00 0.00 0.00 0.00 0.00 0.00 0.00 0.00 0.00 0.00 0.00 0.00 0.00 0.00 0.00 0.00 0.00 0.00 0.00 0.00 0.00 0.00 0.00 0.00 0.00 0.00 0.00 0.00 0.00 0.00 0.00 0.00 0.01 0.00 0.00 0.00 0.00 0.02 0.03 0.02 0.01 0.00
0.02 0.01 0.01 0.02 0.00 0.01 0.00 0.00 0.00 0.00 0.00 0.00 0.00 0.00 0.00 0.00 0.00 0.00 0.00 0.00 0.00 0.00 0.00 0.00 0.00 0.00 0.00 0.00 0.00 0.00 0.00 0.01 0.00 0.00 0.01 0.00 0.00 0.00 0.00 0.01 0.01 0.00 0.00 0.01 0.01 0.01 0.00 0.01 0.01
0.03 0.02 0.04 0.03 0.01 0.00 0.00 0.00 0.01 0.02 0.02 0.01 0.04 0.04 0.01 0.01 0.00 0.00 0.00 0.00 0.00 0.00 0.00 0.00 0.00 0.00 0.00 0.00 0.00 0.01 0.02 0.02 0.02 0.02 0.03 0.01 0.00 0.00 0.00 0.00 0.01 0.02 0.01 0.00 0.00 0.00 0.00 0.00 0.00
0.01 0.01 0.01 0.02 0.00 0.01 0.00 0.00 0.01 0.02 0.08 0.07 0.14 0.12 0.04 0.03 0.00 0.00 0.00 0.00 0.00 0.00 0.00 0.00 0.00 0.00 0.00 0.00 0.00 0.00 0.02 0.03 0.04 0.03 0.02 0.02 0.01 0.00 0.00 0.00 0.00 0.01 0.02 0.01 0.03 0.02 0.00 0.01 0.01
0.00 0.00 0.00 0.00 0.00 0.00 0.01 0.00 0.00 0.00 0.04 0.03 0.04 0.03 0.04 0.03 0.00 0.00 0.00 0.00 0.00 0.00 0.00 0.00 0.00 0.00 0.01 0.01 0.02 0.01 0.00 0.02 0.04 0.02 0.02 0.03 0.02 0.01 0.01 0.00 0.00 0.01 0.01 0.03 0.09 0.08 0.04 0.01 0.01
MSLP
1015.55 1015.31 1015.29 1015.52 1017.03 1017.70 1017.44 1017.34 1017.13 1016.69 1016.26 1015.61 1015.21 1014.84 1014.58 1014.42 1014.42 1014.98 1014.79 1014.53 1014.15 1014.08 1013.98 1014.14 1014.42 1014.76 1015.09 1015.36 1015.73 1016.01 1016.29 1016.44 1016.52 1016.69 1017.08 1017.42 1017.64 1017.80 1018.09 1018.18 1018.18 1018.28 1018.32 1018.59 1018.71 1019.07 1019.59 1019.74 1019.99
1015.59 1015.45 1015.68 1016.88 1017.69 1018.04 1017.59 1017.33 1017.02 1016.56 1016.23 1015.86 1015.43 1015.10 1015.08 1015.17 1015.24 1015.18 1014.75 1014.62 1014.19 1014.00 1014.17 1014.26 1014.55 1014.78 1015.21 1015.52 1015.82 1016.10 1016.40 1016.71 1016.91 1017.03 1017.07 1017.41 1017.69 1017.91 1018.12 1018.39 1018.40 1018.56 1018.74 1019.00 1019.17 1019.33 1020.00 1020.21 1020.31
1015.61 1015.85 1016.53 1017.51 1018.36 1018.07 1017.57 1017.45 1017.13 1016.70 1016.50 1016.12 1015.74 1015.51 1015.75 1016.26 1016.01 1015.84 1015.52 1014.98 1014.04 1013.93 1014.19 1014.33 1014.65 1014.91 1015.21 1015.54 1015.82 1016.20 1016.48 1016.80 1017.05 1017.21 1017.36 1017.45 1017.71 1017.99 1018.32 1018.52 1018.72 1018.95 1019.19 1019.44 1019.52 1019.80 1020.06 1020.47 1020.67
1016.03 1016.64 1018.19 1018.13 1018.29 1018.24 1018.06 1017.77 1017.50 1016.99 1016.63 1016.48 1016.35 1016.25 1016.72 1017.22 1016.88 1016.81 1015.85 1014.61 1014.14 1014.01 1014.10 1014.43 1014.61 1014.94 1015.24 1015.53 1015.78 1016.09 1016.45 1016.79 1017.12 1017.40 1017.61 1017.72 1017.92 1018.18 1018.41 1018.79 1019.09 1019.33 1019.57 1019.70 1019.94 1020.14 1020.28 1020.55 1020.95
1016.90 1017.89 1018.81 1018.96 1018.58 1018.52 1018.37 1018.20 1017.89 1017.41 1017.12 1016.97 1016.79 1016.77 1016.97 1017.27 1017.38 1016.86 1015.94 1015.16 1014.59 1014.25 1014.18 1014.34 1014.70 1014.97 1015.32 1015.54 1015.84 1016.09 1016.32 1016.66 1016.99 1017.29 1017.68 1017.96 1018.13 1018.41 1018.67 1019.02 1019.30 1019.58 1019.84 1020.00 1020.25 1020.42 1020.57 1020.80 1021.06
1018.08 1018.84 1019.58 1019.64 1019.13 1018.91 1018.69 1018.34 1018.10 1017.85 1017.53 1017.33 1017.24 1017.22 1017.09 1017.18 1017.17 1016.89 1016.45 1015.84 1015.10 1014.91 1014.61 1014.51 1014.77 1015.03 1015.29 1015.49 1015.76 1016.12 1016.36 1016.65 1017.01 1017.27 1017.57 1017.88 1018.32 1018.53 1018.97 1019.15 1019.47 1019.78 1020.05 1020.25 1020.49 1020.65 1020.88 1020.99 1021.21
1018.49 1019.41 1020.02 1019.96 1019.65 1019.33 1018.80 1018.60 1018.47 1018.16 1018.05 1017.89 1017.70 1017.48 1017.18 1017.11 1017.27 1017.09 1016.82 1016.38 1015.88 1015.64 1015.32 1015.09 1014.99 1015.04 1015.39 1015.62 1015.77 1016.09 1016.39 1016.58 1016.95 1017.40 1017.63 1017.88 1018.16 1018.71 1019.00 1019.39 1019.58 1019.89 1020.18 1020.46 1020.65 1020.84 1021.18 1021.25 1021.44
1019.11 1019.84 1020.51 1020.35 1020.09 1019.69 1019.41 1019.09 1018.95 1018.78 1018.38 1018.22 1017.96 1017.60 1017.38 1017.45 1017.37 1017.06 1016.70 1016.55 1016.31 1016.07 1015.92 1015.60 1015.33 1015.31 1015.29 1015.52 1015.71 1016.16 1016.41 1016.71 1016.98 1017.42 1017.76 1018.14 1018.43 1018.66 1019.04 1019.45 1019.82 1019.97 1020.31 1020.61 1020.82 1020.93 1021.29 1021.61 1021.76
1019.31 1020.30 1020.86 1020.45 1020.36 1020.03 1019.90 1019.71 1019.45 1019.23 1019.03 1018.64 1018.28 1017.90 1017.76 1017.71 1017.47 1017.12 1016.83 1016.44 1016.40 1016.20 1016.28 1016.02 1015.73 1015.59 1015.47 1015.48 1015.55 1015.92 1016.30 1016.70 1017.08 1017.53 1017.93 1018.28 1018.53 1018.85 1019.11 1019.29 1019.79 1020.13 1020.41 1020.80 1020.98 1021.14 1021.38 1021.82 1022.19
1019.91 1020.66 1020.67 1020.48 1020.39 1020.45 1020.37 1020.25 1019.94 1019.62 1019.28 1019.01 1018.68 1018.20 1017.88 1017.74 1017.79 1017.79 1017.64 1017.37 1017.16 1016.77 1016.57 1016.34 1016.09 1015.94 1015.79 1015.52 1015.58 1016.05 1016.14 1016.60 1017.05 1017.43 1017.89 1018.13 1018.49 1018.89 1019.21 1019.56 1019.77 1020.11 1020.53 1020.83 1021.11 1021.29 1021.67 1021.89 1022.13
1020.53 1020.82 1020.89 1020.81 1020.71 1020.80 1020.70 1020.50 1020.17 1019.88 1019.26 1018.98 1018.85 1018.56 1018.29 1018.08 1017.88 1017.97 1017.95 1017.90 1017.58 1017.20 1016.89 1016.54 1016.36 1016.20 1016.00 1015.81 1015.64 1015.83 1016.26 1016.72 1016.92 1017.26 1017.75 1018.12 1018.60 1019.07 1019.37 1019.74 1020.15 1020.37 1020.80 1020.91 1021.12 1021.52 1021.60 1021.82 1021.98
1020.97 1021.31 1021.42 1021.27 1021.10 1021.10 1020.91 1020.61 1020.14 1019.66 1018.72 1018.66 1018.50 1018.41 1018.55 1018.29 1018.20 1017.99 1017.72 1017.74 1017.64 1017.14 1016.77 1016.52 1016.34 1016.24 1016.00 1015.91 1015.84 1015.67 1015.80 1016.21 1016.89 1017.36 1017.60 1017.95 1018.48 1019.03 1019.40 1019.68 1020.04 1020.41 1020.72 1020.97 1021.17 1021.41 1021.72 1021.84 1022.01
1021.50 1021.81 1021.77 1021.59 1021.43 1021.18 1020.86 1020.47 1020.15 1018.86 1018.69 1018.60 1018.52 1018.36 1018.32 1018.06 1017.90 1017.78 1017.66 1017.43 1017.31 1017.12 1016.49 1016.26 1016.23 1016.12 1016.00 1015.85 1015.78 1015.69 1015.61 1015.79 1016.35 1016.99 1017.32 1017.68 1018.21 1018.76 1019.21 1019.58 1019.98 1020.25 1020.75 1020.89 1021.32 1021.50 1021.75 1021.95 1022.01
1022.07 1022.18 1022.07 1021.80 1021.44 1021.19 1020.81 1019.79 1019.87 1018.58 1018.22 1018.18 1018.23 1018.12 1017.82 1017.76 1017.56 1017.51 1017.34 1016.99 1016.82 1016.54 1016.27 1015.90 1015.83 1015.73 1015.72 1015.68 1015.57 1015.55 1015.35 1015.37 1015.82 1016.45 1016.89 1017.23 1017.68 1018.21 1018.68 1019.17 1019.61 1019.97 1020.45 1020.90 1021.11 1021.55 1021.76 1021.94 1022.16
1022.23 1022.45 1022.33 1022.01 1021.79 1021.27 1020.73 1019.27 1018.95 1018.48 1018.30 1017.83 1017.82 1017.66 1017.52 1017.24 1017.02 1016.81 1016.61 1016.44 1016.22 1015.86 1015.62 1015.50 1015.31 1015.26 1015.32 1015.31 1015.32 1015.26 1015.14 1015.03 1015.27 1015.71 1016.22 1016.74 1017.17 1017.61 1018.20 1018.83 1019.18 1019.46 1020.05 1020.67 1021.22 1021.62 1021.96 1022.11 1022.21
1022.99 1023.37 1023.35 1022.55 1022.13 1021.38 1021.05 1018.63 1018.73 1018.62 1018.45 1017.85 1017.38 1017.21 1016.90 1016.52 1016.22 1015.99 1015.88 1015.82 1015.62 1015.38 1015.29 1015.11 1015.02 1014.92 1014.93 1014.84 1014.85 1014.93 1014.94 1014.80 1014.81 1015.18 1015.58 1016.16 1016.59 1017.02 1017.67 1018.28 1018.82 1019.32 1019.78 1020.29 1020.78 1021.25 1021.63 1021.89 1022.16
1024.26 1024.39 1024.18 1023.22 1022.40 1021.89 1021.51 1019.27 1019.14 1018.79 1018.36 1017.48 1016.73 1016.42 1016.09 1015.61 1015.35 1015.22 1014.91 1014.86 1014.77 1014.69 1014.48 1014.45 1014.55 1014.49 1014.51 1014.55 1014.49 1014.43 1014.43 1014.56 1014.47 1014.66 1015.05 1015.47 1015.90 1016.56 1017.15 1017.59 1017.98 1018.92 1019.29 1019.80 1020.33 1020.85 1021.16 1021.63 1021.93
1025.06 1025.14 1024.65 1023.98 1022.66 1022.06 1021.57 1019.69 1018.86 1018.06 1017.86 1017.12 1016.43 1015.84 1015.42 1014.99 1014.44 1014.07 1014.07 1014.03 1013.91 1013.99 1013.82 1013.75 1013.69 1013.81 1013.94 1014.02 1014.13 1014.25 1014.30 1014.31 1014.18 1014.07 1014.39 1014.75 1015.14 1015.87 1016.51 1017.09 1017.60 1018.13 1019.03 1019.51 1019.96 1020.44 1020.99 1021.33 1021.63
1024.94 1025.21 1025.01 1023.68 1022.53 1022.27 1020.93 1019.60 1018.50 1016.85 1017.20 1016.52 1016.00 1015.39 1014.80 1014.36 1013.87 1013.59 1013.33 1013.25 1013.17 1013.06 1013.17 1013.14 1013.13 1013.23 1013.45 1013.64 1013.62 1013.65 1013.60 1013.68 1013.71 1013.50 1013.61 1014.00 1014.45 1015.07 1015.78 1016.30 1017.14 1017.67 1018.11 1018.89 1019.53 1020.23 1020.66 1021.06 1021.52
1024.79 1024.92 1024.30 1022.90 1022.09 1021.86 1020.25 1018.93 1017.44 1016.62 1016.29 1015.83 1015.40 1014.86 1014.18 1013.55 1013.33 1013.10 1012.82 1012.71 1012.50 1012.28 1012.29 1012.33 1012.27 1012.36 1012.51 1012.66 1012.79 1012.78 1012.86 1012.95 1012.95 1012.89 1012.89 1013.35 1013.96 1014.50 1014.99 1015.61 1016.54 1017.01 1017.67 1018.47 1019.07 1019.61 1020.34 1020.59 1020.92
1024.07 1024.33 1023.73 1023.16 1022.05 1021.24 1020.72 1018.51 1017.20 1016.54 1015.94 1015.50 1015.22 1014.45 1013.71 1013.15 1012.56 1012.17 1012.03 1011.87 1011.65 1011.54 1011.44 1011.33 1011.31 1011.46 1011.65 1011.75 1012.07 1012.33 1012.48 1012.67 1012.57 1012.60 1012.70 1012.80 1013.31 1013.57 1014.25 1014.93 1015.65 1016.30 1016.89 1017.48 1018.09 1018.81 1019.26 1019.80 1020.38
1023.75 1022.87 1022.81 1022.66 1022.55 1022.24 1021.20 1019.89 1017.56 1016.53 1015.91 1015.39 1014.84 1014.29 1013.37 1012.56 1012.08 1011.54 1010.93 1010.55 1010.45 1010.20 1010.12 1010.14 1010.17 1010.32 1010.58 1011.03 1011.18 1011.41 1011.62 1011.69 1011.75 1011.76 1012.07 1012.37 1012.56 1013.03 1013.37 1014.06 1014.64 1015.56 1016.13 1016.92 1017.49 1018.16 1018.55 1018.97 1019.45
1022.44 1022.25 1022.38 1022.45 1022.68 1022.55 1021.34 1020.98 1017.54 1016.67 1015.78 1015.19 1014.37 1013.67 1013.09 1012.34 1011.61 1010.77 1010.16 1009.81 1009.29 1009.27 1009.30 1009.26 1009.41 1009.66 1009.99 1010.26 1010.40 1010.55 1010.77 1011.05 1011.27 1011.37 1011.49 1011.69 1012.10 1012.22 1012.86 1013.37 1013.99 1014.67 1015.26 1015.83 1016.54 1017.50 1018.03 1018.23 1018.44
1021.70 1022.02 1022.23 1022.49 1022.50 1022.34 1020.83 1020.71 1017.86 1016.69 1015.91 1014.71 1013.92 1013.17 1012.34 1011.65 1010.91 1010.11 1009.47 1009.19 1008.80 1008.64 1008.63 1008.65 1008.80 1008.81 1009.14 1009.50 1009.84 1009.76 1009.87 1010.17 1010.62 1010.86 1011.05 1011.26 1011.51 1011.93 1012.19 1012.78 1013.43 1013.79 1014.32 1015.03 1015.79 1016.55 1017.19 1017.92 1018.23
1021.72 1022.13 1022.71 1023.01 1022.84 1021.53 1020.75 1020.48 1017.01 1016.06 1015.34 1014.77 1013.69 1012.94 1012.05 1010.99 1009.89 1009.26 1008.79 1008.38 1008.08 1007.89 1007.96 1008.07 1008.18 1008.10 1008.47 1008.80 1009.14 1009.17 1009.20 1009.41 1009.49 1009.84 1010.36 1010.72 1010.78 1011.27 1011.57 1012.15 1012.74 1013.22 1013.80 1014.09 1015.06 1015.78 1016.29 1016.87 1017.46
1021.48 1021.95 1022.40 1022.36 1022.00 1021.03 1020.22 1018.84 1016.27 1015.30 1014.75 1014.43 1013.71 1012.85 1011.64 1010.47 1009.44 1008.35 1007.84 1007.60 1007.38 1007.21 1007.07 1007.23 1007.27 1007.36 1007.69 1007.77 1007.92 1008.32 1008.56 1008.80 1009.00 1009.15 1009.31 1009.86 1010.08 1010.35 1011.04 1011.47 1011.82 1012.59 1012.86 1013.43 1014.29 1014.87 1015.43 1015.96 1016.35
1020.83 1020.93 1020.75 1021.13 1021.10 1020.61 1019.10 1017.56 1015.92 1015.25 1014.72 1014.14 1013.51 1012.55 1011.23 1009.74 1008.04 1006.89 1006.71 1006.46 1006.43 1006.50 1006.21 1006.18 1006.09 1006.06 1006.27 1006.73 1007.33 1007.59 1007.87 1008.16 1008.35 1008.71 1008.80 1009.07 1009.46 1009.74 1010.27 1010.76 1011.33 1011.61 1012.49 1012.81 1013.33 1013.76 1014.35 1014.87 1015.76
1019.89 1020.12 1020.27 1020.22 1020.31 1019.60 1018.34 1017.92 1016.72 1015.63 1014.27 1013.51 1012.84 1012.25 1011.17 1009.42 1007.76 1006.66 1005.97 1005.74 1005.84 1005.60 1005.44 1005.66 1005.74 1005.52 1005.73 1006.12 1006.43 1006.66 1007.01 1007.32 1007.67 1007.94 1008.27 1008.24 1008.86 1009.36 1009.68 1010.21 1010.71 1011.18 1011.68 1012.23 1012.61 1012.88 1013.36 1014.06 1014.82
1019.60 1019.66 1019.61 1019.46 1019.58 1019.42 1018.54 1017.04 1016.54 1015.98 1015.34 1014.65 1013.97 1012.99 1011.46 1009.79 1008.56 1007.32 1006.37 1005.79 1005.49 1005.00 1005.06 1004.95 1004.95 1005.07 1005.30 1005.37 1005.73 1005.97 1006.33 1006.56 1006.84 1007.21 1007.48 1007.76 1008.31 1008.67 1009.14 1009.46 1009.87 1010.41 1010.93 1011.43 1011.80 1012.02 1012.50 1013.28 1013.65
1019.28 1019.33 1019.32 1019.48 1019.28 1019.13 1018.43 1016.38 1015.39 1015.36 1015.21 1014.84 1013.98 1012.79 1011.38 1010.02 1008.81 1007.89 1006.87 1005.94 1005.31 1004.99 1004.90 1004.83 1004.60 1004.45 1004.56 1004.74 1005.07 1005.29 1005.64 1005.60 1006.05 1006.20 1006.86 1007.31 1007.66 1008.06 1008.41 1008.79 1009.08 1009.45 1009.94 1010.55 1011.07 1011.12 1011.69 1012.27 1012.72
Thickness
5689 5693 5696 5695 5680 5671 5669 5680 5685 5691 5697 5708 5712 5716 5720 5721 5720 5712 5734 5739 5744 5744 5746 5747 5748 5748 5748 5749 5748 5749 5748 5748 5748 5748 5745 5742 5742 5742 5740 5740 5741 5740 5741 5741 5741 5738 5734 5733 5731
5681 5686 5686 5671 5663 5663 5674 5674 5683 5692 5698 5701 5705 5712 5714 5713 5721 5724 5732 5738 5741 5742 5742 5743 5743 5744 5743 5743 5744 5745 5745 5744 5744 5744 5744 5742 5740 5740 5739 5738 5738 5737 5737 5736 5736 5735 5731 5730 5729
5674 5675 5670 5659 5645 5663 5672 5669 5680 5689 5691 5695 5702 5708 5707 5704 5715 5720 5726 5733 5740 5742 5740 5739 5738 5738 5739 5739 5740 5740 5741 5740 5740 5740 5740 5741 5739 5737 5737 5736 5735 5733 5732 5732 5732 5731 5729 5727 5726
5662 5661 5649 5649 5650 5653 5660 5666 5671 5680 5687 5688 5690 5693 5697 5699 5706 5711 5722 5733 5739 5740 5739 5737 5735 5736 5735 5736 5737 5737 5736 5736 5736 5736 5736 5736 5736 5735 5735 5733 5731 5730 5729 5729 5728 5727 5726 5725 5723
5645 5639 5630 5633 5642 5647 5651 5658 5664 5670 5674 5677 5681 5684 5688 5695 5700 5708 5717 5726 5733 5736 5736 5735 5733 5732 5732 5732 5732 5732 5733 5733 5733 5733 5732 5732 5732 5732 5732 5730 5728 5727 5725 5725 5724 5723 5723 5722 5721
5626 5623 5619 5628 5633 5637 5643 5652 5657 5660 5664 5670 5673 5675 5684 5692 5696 5703 5709 5716 5725 5728 5730 5731 5730 5728 5729 5729 5728 5727 5728 5728 5728 5729 5729 5729 5728 5728 5727 5728 5726 5723 5722 5722 5721 5720 5719 5719 5718
5616 5611 5609 5613 5621 5628 5638 5643 5646 5651 5655 5660 5663 5667 5679 5685 5690 5695 5700 5707 5713 5718 5721 5724 5725 5725 5724 5723 5723 5723 5723 5724 5724 5724 5724 5726 5726 5723 5724 5723 5722 5720 5719 5717 5718 5716 5714 5715 5714
5605 5601 5596 5601 5614 5621 5623 5631 5636 5640 5647 5652 5656 5660 5672 5676 5683 5689 5695 5699 5704 5709 5712 5716 5719 5719 5718 5718 5719 5717 5718 5719 5719 5719 5719 5719 5720 5720 5720 5719 5718 5718 5716 5714 5713 5714 5711 5710 5710
5597 5593 5591 5601 5600 5610 5613 5617 5624 5630 5634 5640 5646 5653 5660 5666 5674 5680 5685 5692 5695 5701 5703 5707 5711 5713 5714 5715 5714 5713 5713 5713 5713 5713 5713 5713 5714 5714 5715 5717 5715 5714 5712 5710 5710 5709 5709 5706 5704
5588 5584 5588 5591 5593 5596 5601 5604 5611 5619 5624 5631 5635 5643 5650 5657 5661 5666 5670 5676 5681 5687 5692 5697 5702 5706 5708 5711 5711 5710 5708 5707 5707 5706 5706 5707 5708 5708 5709 5710 5712 5711 5708 5706 5706 5705 5704 5704 5702
5570 5578 5574 5583 5586 5585 5589 5593 5601 5607 5616 5623 5627 5630 5638 5646 5651 5655 5659 5664 5669 5676 5683 5688 5693 5697 5701 5705 5708 5709 5706 5703 5703 5702 5701 5702 5702 5702 5702 5702 5702 5704 5703 5702 5702 5700 5701 5700 5701
5566 5563 5566 5571 5571 5573 5578 5585 5593 5599 5618 5618 5620 5625 5627 5634 5638 5645 5651 5656 5661 5667 5675 5681 5685 5689 5694 5698 5702 5705 5707 5704 5701 5698 5697 5698 5698 5697 5696 5697 5698 5698 5698 5698 5698 5697 5697 5697 5697
5551 5550 5552 5557 5557 5562 5568 5575 5581 5599 5605 5605 5609 5614 5618 5625 5632 5635 5641 5648 5654 5660 5668 5674 5678 5682 5686 5692 5695 5699 5703 5703 5701 5698 5698 5697 5696 5694 5692 5692 5692 5694 5693 5693 5692 5692 5692 5692 5693
5536 5538 5540 5544 5549 5553 5559 5576 5573 5593 5594 5595 5597 5604 5611 5616 5624 5628 5633 5641 5648 5655 5662 5669 5673 5677 5681 5685 5690 5693 5697 5700 5698 5696 5696 5696 5694 5693 5691 5689 5688 5689 5689 5688 5687 5686 5686 5687 5687
5527 5529 5528 5532 5534 5540 5548 5574 5571 5575 5580 5586 5587 5596 5601 5608 5616 5622 5628 5634 5639 5650 5657 5662 5669 5672 5674 5677 5680 5685 5691 5695 5696 5696 5694 5693 5692 5692 5688 5685 5685 5685 5684 5683 5682 5679 5678 5679 5681
5509 5506 5517 5521 5519 5529 5537 5579 5565 5561 5561 5571 5580 5583 5591 5601 5610 5617 5623 5627 5634 5640 5647 5654 5658 5664 5667 5671 5674 5676 5680 5686 5690 5691 5692 5691 5690 5690 5687 5684 5681 5678 5679 5678 5678 5676 5675 5675 5674
5480 5494 5488 5500 5505 5509 5517 5548 5549 5544 5545 5559 5573 5580 5585 5597 5605 5611 5617 5622 5629 5634 5641 5645 5650 5657 5661 5665 5667 5671 5675 5678 5683 5685 5688 5689 5688 5686 5684 5684 5681 5676 5676 5676 5675 5674 5673 5671 5670
5467 5472 5473 5474 5493 5496 5500 5523 5533 5537 5529 5545 5559 5569 5575 5582 5595 5603 5611 5615 5621 5626 5633 5640 5644 5648 5653 5657 5661 5662 5664 5668 5673 5680 5683 5686 5687 5684 5681 5679 5678 5676 5672 5672 5671 5670 5668 5667 5666
5453 5452 5456 5463 5483 5481 5491 5507 5518 5531 5530 5537 5544 5556 5565 5573 5582 5591 5598 5606 5612 5619 5623 5629 5635 5639 5640 5645 5651 5655 5659 5663 5668 5673 5679 5681 5682 5682 5678 5678 5674 5671 5672 5669 5666 5662 5662 5661 5660
5458 5452 5458 5471 5476 5479 5493 5510 5518 5518 5526 5531 5536 5548 5558 5568 5571 5577 5586 5593 5601 5609 5613 5618 5625 5630 5635 5638 5643 5649 5653 5657 5661 5666 5669 5670 5672 5674 5675 5675 5670 5669 5666 5664 5663 5660 5655 5657 5659
5455 5445 5448 5459 5469 5475 5475 5505 5509 5515 5521 5526 5527 5538 5548 5556 5563 5570 5576 5582 5590 5596 5601 5606 5613 5618 5622 5629 5630 5633 5639 5641 5647 5652 5656 5662 5664 5670 5671 5671 5670 5668 5666 5664 5664 5660 5658 5654 5653
5440 5457 5460 5459 5461 5459 5480 5484 5501 5509 5512 5516 5523 5529 5537 5546 5555 5563 5569 5577 5583 5590 5594 5600 5603 5607 5612 5612 5616 5620 5626 5633 5640 5647 5651 5654 5659 5662 5666 5666 5664 5662 5662 5658 5658 5658 5657 5653 5651
5458 5461 5462 5464 5462 5456 5465 5470 5503 5495 5510 5515 5521 5525 5528 5533 5543 5553 5562 5569 5576 5581 5582 5586 5588 5591 5591 5596 5601 5607 5614 5622 5627 5631 5638 5644 5648 5653 5657 5658 5659 5660 5660 5660 5659 5654 5653 5653 5653
5471 5466 5460 5456 5463 5464 5462 5466 5488 5499 5507 5515 5519 5519 5523 5529 5537 5547 5555 5560 5564 5567 5569 5568 5573 5577 5577 5580 5583 5592 5598 5605 5611 5616 5621 5629 5636 5640 5647 5649 5650 5656 5659 5657 5656 5653 5650 5647 5645
5464 5458 5433 5439 5437 5463 5424 5456 5494 5493 5501 5506 5509 5512 5518 5526 5534 5540 5548 5555 5559 5560 5559 5556 5557 5561 5558 5559 5564 5574 5581 5585 5595 5601 5607 5614 5625 5630 5636 5642 5643 5650 5653 5657 5651 5649 5649 5646 5643
5460 5450 5436 5452 5451 5471 5455 5484 5502 5503 5505 5500 5499 5502 5510 5519 5526 5536 5543 5547 5550 5553 5552 5546 5545 5546 5543 5546 5551 5553 5561 5564 5573 5580 5591 5599 5612 5623 5627 5632 5640 5641 5649 5650 5649 5649 5648 5646 5642
5464 5472 5468 5462 5451 5471 5460 5476 5499 5501 5500 5497 5491 5495 5500 5509 5528 5544 5545 5543 5541 5540 5542 5541 5540 5540 5536 5535 5528 5530 5538 5544 5554 5564 5577 5587 5601 5614 5620 5627 5632 5641 5640 5647 5650 5651 5648 5646 5638
5479 5478 5477 5472 5464 5488 5480 5451 5487 5491 5497 5498 5493 5487 5493 5513 5530 5542 5549 5544 5539 5540 5538 5532 5529 5531 5526 5521 5520 5519 5521 5526 5537 5547 5560 5581 5592 5602 5614 5623 5629 5635 5638 5641 5645 5648 5647 5642 5636
5480 5478 5475 5484 5475 5480 5484 5480 5478 5480 5483 5486 5486 5485 5501 5517 5527 5540 5546 5546 5543 5544 5538 5536 5531 5528 5519 5515 5512 5509 5507 5512 5520 5532 5548 5565 5580 5594 5604 5615 5622 5629 5634 5638 5641 5643 5642 5637 5635
5485 5479 5476 5471 5482 5460 5472 5493 5505 5503 5493 5490 5493 5500 5514 5524 5533 5540 5546 5551 5553 5550 5545 5539 5536 5531 5523 5516 5513 5511 5506 5510 5513 5523 5533 5551 5570 5587 5599 5607 5617 5626 5632 5634 5635 5638 5637 5634 5630